CAPE
0 0 0 0 0 0 0 0 0 0 0 0 0 0 0 0 0 37 0 0 24 0 0 0 0 0 0 0 0 0 0 0 0 0 0 0 0 0 0 0 0 0 0 0 0 0 0 0 4 11 15 2 3 0
0 0 0 0 0 0 0 0 0 0 0 0 0 0 0 0 0 0 38 0 7 13 6 0 0 0 0 0 0 0 0 0 0 0 0 0 0 0 0 0 0 0 0 7 5 1 17 19 5 18 1 17 3 0
0 0 0 0 0 0 0 0 0 0 0 0 0 0 0 0 0 4 62 16 38 2 0 0 0 0 0 0 0 0 0 0 0 1 0 0 0 0 0 0 0 0 0 4 3 0 8 21 8 2 0 0 0 0
0 0 0 0 0 0 0 0 0 0 0 0 0 0 0 0 0 0 54 8 20 6 0 4 0 0 0 0 0 0 0 0 0 0 0 0 0 3 1 0 0 0 6 7 11 15 12 16 0 0 0 0 5 2
0 0 0 0 1 0 0 0 0 0 0 0 0 0 0 0 0 51 56 15 8 97 0 0 0 0 0 0 0 0 0 0 0 0 0 0 6 6 1 0 0 0 0 11 7 18 0 4 0 0 3 3 1 0
0 0 0 0 0 0 0 0 0 0 0 0 0 0 0 0 0 29 32 24 5 64 0 0 0 0 0 0 0 0 1 18 20 15 0 1 14 1 1 0 0 0 4 7 10 0 0 0 0 2 4 0 0 0
0 0 0 0 0 0 0 0 0 0 0 0 0 0 0 0 24 19 0 0 0 22 0 0 0 0 0 1 3 7 1 5 8 21 5 6 19 18 1 0 0 4 7 0 0 0 1 3 4 1 0 0 0 0
0 0 0 0 0 0 0 0 0 0 0 0 0 0 0 0 0 4 0 0 0 0 0 0 0 0 0 0 0 1 3 1 4 5 0 1 7 6 2 0 0 0 0 0 0 0 3 1 0 0 0 0 0 0
0 0 0 0 0 0 0 0 0 1 0 0 0 0 0 2 11 9 0 0 0 15 0 0 0 0 2 2 2 0 2 1 1 0 0 1 0 0 0 1 0 0 0 0 0 0 0 0 0 0 0 0 0 0
0 0 0 0 0 0 0 0 0 0 1 0 1 0 3 0 0 0 0 14 6 0 1 0 0 0 0 1 1 0 0 1 2 0 1 0 0 0 0 0 0 0 0 0 0 0 0 0 0 0 0 0 0 0
0 0 0 0 0 0 0 0 0 1 1 0 0 0 1 1 0 0 0 0 0 0 0 1 0 0 0 0 0 0 0 0 1 1 1 1 1 0 0 0 0 0 0 0 0 0 0 0 0 0 0 0 0 0
0 0 0 0 0 0 0 0 0 0 1 1 0 0 0 1 1 0 0 0 0 0 1 0 1 1 0 0 0 1 0 1 1 1 0 2 0 0 0 0 0 0 0 0 0 0 0 0 0 0 0 0 0 0
0 0 0 0 0 0 0 0 0 0 0 0 0 0 0 0 0 1 0 2 2 0 0 1 0 0 0 1 0 0 0 0 0 0 1 1 0 0 0 0 0 0 0 0 0 0 0 0 0 0 0 0 0 0
0 0 0 0 1 0 0 0 0 0 0 0 0 1 1 0 0 0 0 1 2 1 2 0 1 1 0 0 0 0 0 0 2 1 0 1 0 0 1 0 0 0 0 0 0 0 0 0 0 0 0 0 0 0
0 0 0 0 0 0 0 0 0 0 0 0 0 0 0 0 1 0 1 1 0 2 2 1 1 2 0 0 0 0 0 0 2 4 0 0 1 1 0 0 0 0 0 0 0 0 0 0 0 0 0 0 0 0
0 0 4 0 0 0 0 0 0 0 0 0 0 0 0 0 0 0 0 0 1 1 0 1 0 0 0 0 0 0 1 0 2 2 0 0 0 0 0 0 0 0 0 0 0 0 0 0 0 0 0 0 0 0
0 5 2 0 0 0 0 0 0 0 0 0 0 2 0 0 0 0 1 0 1 0 0 1 0 0 0 0 0 0 1 1 0 0 0 0 0 0 0 0 0 0 0 0 0 0 0 0 0 0 0 0 0 0
4 4 0 0 0 0 0 0 0 0 0 0 0 0 0 0 0 0 0 0 0 0 0 0 0 0 0 4 21 5 0 0 0 0 0 0 0 0 0 0 0 0 0 0 0 0 0 0 0 0 0 0 0 1
10 12 0 0 2 0 0 0 0 0 0 1 2 2 0 1 2 2 0 0 0 0 0 0 0 0 0 0 0 0 0 0 0 0 0 0 0 0 0 0 0 0 0 0 0 0 0 0 0 0 0 4 4 2
0 0 0 0 0 0 0 0 0 0 0 0 1 2 1 1 1 1 1 1 0 0 0 0 0 0 0 0 0 0 0 0 0 0 0 0 0 0 0 0 0 0 0 0 0 0 0 4 3 2 4 2 1 2
0 2 0 0 0 0 0 0 0 0 0 1 1 0 0 1 0 0 0 3 1 1 0 0 0 0 0 0 0 0 0 0 0 0 0 0 0 0 0 0 0 0 0 0 0 0 5 15 5 12 0 1 0 0
1 0 1 1 1 0 0 0 1 0 0 2 1 1 0 0 0 0 1 1 1 0 0 0 0 0 0 0 0 0 0 0 0 0 0 0 0 0 0 1 0 0 1 8 11 4 0 6 10 1 1 0 0 0
0 1 0 0 0 0 0 1 0 0 0 1 1 1 2 1 1 1 0 0 0 0 0 0 0 0 0 0 0 0 0 0 0 0 0 0 0 0 0 2 8 7 4 4 13 7 8 5 1 0 0 0 0 0
0 0 0 0 0 0 0 0 0 0 0 0 0 0 0 1 0 0 0 0 0 0 0 0 0 0 0 0 0 0 0 0 0 0 0 2 2 8 24 13 15 11 11 4 3 1 0 0 0 1 0 0 0 0
0 0 0 0 0 0 0 1 0 0 0 0 0 0 0 0 0 0 0 0 2 1 0 0 0 0 0 0 0 1 0 0 0 1 2 8 12 11 11 14 4 1 3 3 0 0 1 0 0 0 1 1 2 1
0 0 0 0 0 0 0 0 0 0 0 0 0 0 0 0 0 0 0 1 1 1 1 1 0 0 0 0 0 1 2 1 2 2 0 2 3 14 5 1 4 2 5 4 0 0 1 0 0 2 3 2 1 1
0 0 1 0 0 0 0 0 0 0 0 0 0 0 0 0 0 0 0 1 1 1 1 0 0 1 0 0 0 0 0 0 1 1 0 0 0 1 0 0 0 0 2 1 0 0 1 1 1 3 2 3 1 2
0 1 0 0 0 0 0 0 0 0 0 0 0 0 0 0 0 2 1 0 0 0 0 0 0 0 0 0 0 0 0 0 1 0 0 2 2 0 0 0 1 0 1 1 0 0 0 0 0 1 3 4 3 0
1 0 0 0 0 0 0 0 0 0 0 0 0 0 1 0 2 1 0 0 0 0 0 0 0 0 0 0 0 2 0 0 0 0 0 0 0 0 0 1 1 1 1 1 0 0 0 0 1 1 0 0 0 0
0 0 0 0 0 0 1 0 1 0 0 0 0 0 0 3 0 0 0 0 0 0 0 0 0 0 0 0 0 1 0 0 0 1 1 1 0 0 0 0 0 1 1 1 0 0 0 0 1 0 0 0 0 0
1 2 1 0 0 2 0 0 0 0 0 0 0 0 0 2 0 0 0 0 0 0 0 0 0 0 0 0 0 0 0 0 1 0 0 0 0 0 0 0 0 0 0 0 0 0 0 0 1 0 0 0 0 0
2 2 1 0 1 1 0 0 0 0 0 0 1 0 1 1 1 0 0 0 0 0 0 0 0 0 0 1 2 2 0 1 1 0 0 0 0 0 0 0 0 0 0 0 0 0 0 0 0 0 0 0 1 0
0 0 1 0 0 1 0 0 0 0 0 0 1 1 1 0 0 0 0 0 0 0 0 0 0 0 1 0 1 1 0 0 2 2 0 0 0 0 0 0 0 0 0 0 0 0 0 0 0 0 0 0 0 0
CIN
-0 -0 -0 -0 -0 -0 -0 -0 -0 -0 -0 -0 -0 -0 -0 -0 -0 -134 -0 -0 -85 -0 -0 -0 -0 -0 -0 -0 -0 -0 -0 -0 -0 -0 -0 -0 -0 -0 -0 -0 -0 -0 -0 -0 -0 -0 -0 -0 -18 -3 -1 -6 -0 -6
-0 -0 -0 -0 -0 -0 -0 -0 -0 -0 -0 -0 -0 -0 -0 -0 -0 -0 -81 -0 -131 -63 -84 -0 -0 -0 -0 -0 -0 -0 -0 -0 -0 -0 -0 -0 -0 -0 -0 -0 -0 -0 -0 -1 -1 -0 -2 -6 -15 -1 -1 -1 -0 -0
-0 -0 -0 -0 -0 -0 -0 -0 -0 -0 -0 -0 -0 -0 -0 -0 -0 -150 -98 -179 -93 -22 -0 -0 -0 -0 -0 -0 -0 -0 -0 -0 -0 -4 -0 -0 -0 -0 -0 -0 -0 -0 -1 -6 -2 -0 -2 -1 -5 -12 -0 -0 -0 -0
-0 -0 -0 -0 -0 -0 -0 -0 -0 -0 -0 -0 -0 -0 -0 -0 -0 -0 -89 -123 -112 -61 -0 -25 -0 -0 -0 -0 -0 -0 -0 -0 -0 -0 -0 -0 -0 -1 -0 -0 -0 -0 -3 -4 -2 -1 -10 -6 -0 -0 -0 -0 -0 -0
-0 -0 -0 -0 -0 -0 -0 -0 -0 -0 -0 -0 -0 -0 -0 -0 -0 -73 -84 -153 -85 -28 -0 -0 -0 -0 -0 -0 -0 -0 -0 -0 -0 -0 -0 -0 -1 -1 -0 -0 -1 -0 -0 -1 -2 -0 -0 -1 -0 -0 -0 -0 -0 -0
-0 -0 -0 -0 -0 -0 -0 -0 -0 -0 -0 -0 -0 -0 -0 -0 -0 -23 -8 -58 -39 -49 -0 -0 -0 -0 -0 -0 -0 -0 -0 -2 -1 -0 -0 -0 -1 -1 -4 -0 -0 -0 -2 -2 -1 -0 -1 -0 -0 -0 -0 -0 -0 -0
-0 -0 -0 -0 -0 -0 -0 -0 -0 -0 -0 -0 -0 -0 -0 -0 -15 -3 -0 -0 -0 -50 -0 -0 -0 -0 -0 -0 -0 -0 -0 -0 -0 -0 -2 -3 -0 -4 -5 -0 -0 -1 -1 -0 -0 -0 -0 -0 -0 -0 -0 -0 -0 -0
-0 -0 -0 -0 -0 -0 -0 -0 -0 -0 -0 -0 -0 -0 -2 -0 -0 -0 -0 -0 -0 -1 -0 -0 -0 -0 -0 -0 -0 -0 -0 -0 -0 -0 -0 -1 -2 -0 -2 -0 -0 -0 -0 -0 -0 -0 -0 -0 -0 -0 -0 -0 -0 -0
-0 -0 -0 -0 -0 -0 -0 -0 -0 -0 -0 -0 -0 -0 -0 -19 -2 -5 -0 -0 -0 -10 -0 -0 -0 -0 -0 -0 -0 -0 -0 -0 -0 -2 -0 -0 -0 -0 -0 -13 -0 -0 -0 -0 -0 -0 -0 -0 -0 -0 -0 -0 -0 -0
-0 -0 -0 -0 -0 -0 -0 -0 -0 -0 -0 -0 -0 -0 -19 -0 -0 -0 -3 -11 -8 -0 -0 -2 -0 -0 -0 -0 -0 -0 -0 -0 -0 -0 -0 -0 -0 -0 -0 -0 -0 -0 -0 -0 -0 -0 -0 -0 -0 -0 -0 -0 -0 -0
-0 -0 -0 -0 -0 -0 -0 -0 -0 -0 -0 -0 -0 -0 -0 -0 -0 -0 -0 -0 -0 -0 -0 -0 -0 -0 -0 -0 -0 -0 -0 -0 -0 -0 -0 -0 -0 -0 -0 -0 -0 -0 -0 -0 -0 -0 -0 -0 -0 -0 -0 -0 -0 -0
-0 -0 -0 -0 -0 -0 -0 -0 -0 -0 -0 -0 -0 -0 -0 -0 -0 -0 -0 -0 -0 -0 -0 -0 -0 -0 -0 -0 -0 -0 -0 -0 -0 -0 -0 -0 -0 -0 -0 -0 -0 -0 -0 -0 -0 -0 -0 -0 -0 -0 -0 -0 -0 -0
-0 -0 -0 -0 -0 -1 -0 -0 -0 -0 -0 -0 -0 -0 -0 -0 -0 -0 -0 -0 -0 -0 -0 -0 -0 -0 -0 -0 -0 -0 -0 -0 -0 -1 -0 -1 -0 -0 -0 -0 -0 -0 -0 -0 -0 -0 -0 -0 -0 -0 -0 -0 -0 -0
-0 -0 -0 -0 -0 -0 -0 -0 -0 -0 -0 -0 -0 -0 -0 -0 -0 -0 -0 -0 -0 -0 -0 -0 -0 -0 -0 -0 -0 -0 -0 -0 -0 -0 -0 -1 -0 -0 -1 -0 -0 -0 -0 -0 -0 -0 -0 -0 -0 -0 -0 -0 -0 -0
-0 -0 -0 -7 -0 -0 -0 -0 -0 -0 -0 -0 -0 -0 -0 -0 -0 -0 -0 -0 -0 -0 -0 -0 -0 -0 -0 -0 -0 -0 -0 -0 -0 -0 -0 -0 -1 -1 -0 -0 -0 -0 -0 -0 -0 -0 -0 -0 -0 -0 -0 -0 -0 -0
-0 -0 -0 -0 -0 -0 -0 -0 -0 -0 -0 -0 -0 -0 -0 -0 -0 -0 -0 -0 -0 -0 -0 -0 -0 -0 -0 -0 -0 -0 -0 -0 -0 -0 -0 -0 -0 -0 -0 -0 -0 -0 -0 -0 -0 -0 -0 -0 -0 -0 -0 -0 -0 -0
-0 -0 -0 -0 -0 -0 -0 -0 -0 -0 -0 -0 -0 -0 -0 -0 -0 -0 -0 -0 -0 -0 -0 -0 -0 -0 -0 -0 -0 -0 -0 -0 -0 -0 -0 -0 -0 -0 -0 -0 -0 -0 -0 -0 -0 -0 -0 -0 -0 -0 -0 -0 -0 -0
-0 -2 -6 -0 -0 -0 -0 -0 -0 -0 -0 -0 -0 -0 -0 -0 -0 -0 -0 -0 -0 -0 -0 -0 -0 -0 -0 -8 -3 -33 -0 -0 -0 -0 -0 -0 -0 -0 -0 -0 -0 -0 -0 -0 -0 -0 -0 -0 -0 -0 -0 -0 -0 -0
-2 -1 -18 -0 -4 -0 -0 -0 -0 -0 -0 -0 -0 -0 -0 -0 -0 -0 -0 -0 -0 -0 -0 -0 -0 -0 -0 -0 -0 -0 -0 -0 -0 -0 -0 -0 -0 -0 -0 -0 -0 -0 -0 -0 -0 -0 -0 -0 -0 -0 -0 -1 -0 -0
-0 -0 -0 -0 -0 -0 -0 -0 -0 -0 -0 -0 -0 -0 -0 -0 -0 -0 -0 -0 -0 -0 -0 -0 -0 -0 -0 -0 -0 -0 -0 -0 -0 -0 -0 -0 -0 -0 -0 -0 -0 -0 -0 -0 -0 -0 -0 -0 -1 -1 -1 -1 -0 -0
-0 -0 -0 -0 -0 -0 -0 -0 -0 -0 -0 -0 -0 -0 -0 -0 -0 -0 -0 -0 -0 -0 -0 -0 -0 -0 -0 -0 -0 -0 -0 -0 -0 -0 -0 -0 -0 -0 -0 -0 -0 -0 -0 -0 -0 -0 -32 -14 -8 -1 -0 -1 -0 -0
-0 -0 -0 -0 -0 -0 -0 -0 -0 -0 -1 -0 -0 -0 -0 -0 -0 -0 -0 -0 -0 -0 -0 -0 -0 -0 -0 -0 -0 -0 -0 -0 -0 -0 -0 -0 -0 -0 -1 -1 -0 -0 -7 -21 -16 -14 -0 -0 -1 -0 -0 -0 -0 -0
-0 -0 -0 -0 -0 -0 -0 -0 -0 -0 -0 -0 -0 -0 -0 -0 -0 -0 -0 -0 -0 -0 -0 -0 -0 -0 -0 -0 -0 -0 -0 -0 -0 -0 -0 -0 -0 -0 -0 -7 -4 -9 -13 -19 -6 -2 -1 -0 -0 -0 -0 -0 -0 -1
-0 -0 -0 -0 -0 -0 -0 -0 -0 -0 -0 -0 -0 -0 -0 -0 -0 -0 -0 -0 -0 -0 -0 -0 -0 -0 -0 -0 -0 -0 -0 -0 -0 -0 -1 -7 -8 -7 -5 -11 -9 -7 -4 -1 -1 -0 -1 -0 -0 -0 -0 -0 -3 -0
-0 -0 -0 -0 -0 -0 -0 -0 -0 -0 -0 -0 -0 -0 -0 -0 -0 -0 -0 -0 -0 -0 -0 -0 -0 -0 -0 -0 -0 -1 -1 -0 -0 -1 -2 -5 -6 -6 -4 -4 -5 -1 -2 -3 -0 -0 -0 -0 -0 -0 -1 -0 -0 -2
-0 -0 -0 -0 -0 -0 -0 -0 -0 -0 -0 -0 -0 -0 -0 -0 -0 -0 -0 -0 -0 -0 -0 -0 -0 -0 -0 -0 -0 -0 -0 -0 -0 -0 -0 -2 -2 -1 -0 -0 -0 -0 -1 -3 -0 -0 -0 -1 -0 -0 -0 -0 -0 -0
-0 -0 -0 -0 -0 -0 -0 -0 -0 -0 -0 -0 -0 -0 -0 -0 -0 -0 -0 -0 -0 -0 -0 -0 -0 -0 -0 -0 -1 -0 -0 -0 -0 -0 -0 -0 -0 -0 -0 -0 -0 -0 -0 -0 -0 -0 -0 -0 -0 -0 -0 -1 -0 -1
-0 -0 -0 -0 -0 -0 -0 -0 -0 -0 -0 -0 -0 -0 -0 -0 -0 -0 -0 -0 -0 -1 -0 -0 -0 -0 -0 -1 -1 -0 -1 -0 -0 -0 -0 -0 -0 -0 -0 -0 -0 -0 -0 -0 -0 -0 -0 -0 -0 -0 -0 -0 -0 -0
-0 -0 -0 -0 -0 -0 -0 -0 -0 -0 -0 -0 -0 -0 -0 -0 -0 -0 -0 -0 -0 -0 -0 -0 -0 -0 -1 -0 -2 -1 -1 -0 -0 -0 -0 -0 -0 -0 -0 -0 -0 -0 -0 -0 -0 -0 -0 -0 -0 -0 -0 -0 -0 -0
-0 -0 -0 -0 -0 -0 -0 -0 -0 -0 -0 -0 -0 -0 -0 -0 -0 -1 -1 -0 -0 -0 -0 -0 -0 -1 -0 -0 -0 -0 -0 -0 -0 -0 -0 -0 -0 -0 -0 -0 -0 -0 -0 -0 -0 -0 -0 -0 -1 -1 -0 -1 -0 -1
-0 -0 -0 -0 -0 -0 -0 -0 -0 -0 -0 -0 -0 -0 -0 -0 -0 -0 -0 -1 -0 -0 -0 -0 -0 -1 -0 -0 -0 -0 -0 -1 -0 -0 -0 -0 -0 -0 -0 -0 -0 -0 -0 -0 -0 -0 -0 -0 -1 -1 -0 -0 -0 -0
-0 -0 -0 -0 -0 -0 -0 -0 -0 -0 -0 -0 -0 -0 -0 -0 -0 -0 -0 -1 -0 -0 -0 -0 -0 -0 -0 -1 -0 -0 -2 -1 -1 -0 -0 -0 -0 -0 -0 -0 -0 -0 -0 -0 -0 -0 -0 -0 -0 -0 -1 -0 -0 -0
-0 -0 -0 -0 -0 -0 -0 -0 -0 -0 -0 -0 -0 -0 -0 -0 -0 -0 -0 -0 -0 -0 -0 -0 -0 -0 -0 -0 -1 -1 -2 -1 -1 -0 -0 -0 -0 -0 -0 -0 -0 -0 -0 -0 -0 -0 -0 -0 -0 -0 -0 -0 -0 -0
Wind_Speed
21 22 28 26 26 25 24 22 20 19 18 17 17 16 16 16 16 16 15 16 17 17 15 17 16 13 14 13 13 11 12 15 14 14 14 14 15 14 17 17 19 19 22 24 23 27 31 18 19 25 27 31 29 32
18 20 25 26 25 25 24 23 21 20 19 18 18 17 17 17 17 17 17 15 16 16 16 16 15 16 16 17 16 10 18 13 11 14 14 14 15 16 18 22 16 22 19 23 18 22 24 25 26 29 27 28 31 33
11 15 23 25 24 24 24 24 23 21 20 19 18 18 17 17 17 17 16 17 16 17 16 17 17 17 16 17 18 17 17 14 13 16 13 16 19 16 19 21 22 24 22 22 26 23 27 29 29 25 27 29 29 28
10 10 15 21 25 24 24 23 22 21 21 20 19 18 18 17 17 17 17 18 17 17 20 20 18 18 20 19 17 18 15 15 14 15 18 18 20 16 21 23 25 26 25 24 25 29 31 25 24 27 30 27 26 27
6 10 11 16 20 24 24 22 21 21 20 19 19 18 18 18 16 15 15 16 17 20 20 20 19 19 19 18 17 17 15 16 18 19 20 21 20 22 23 26 29 25 24 26 29 28 26 28 27 29 26 25 27 29
7 7 9 12 15 19 23 24 22 21 20 20 18 17 18 18 19 18 21 18 18 19 20 24 20 20 19 17 17 17 16 19 19 19 21 21 19 22 26 28 27 26 21 23 27 26 26 25 24 21 24 26 27 31
8 9 10 12 14 17 21 26 27 24 21 19 19 18 18 18 19 21 22 18 18 18 21 25 26 22 20 17 18 19 19 21 20 21 23 23 22 21 27 32 28 25 23 23 23 22 26 20 24 22 24 27 29 31
11 11 12 13 15 17 19 22 27 26 21 18 19 19 17 16 17 20 18 16 17 17 21 26 26 23 17 21 22 20 22 21 22 23 23 24 23 24 32 29 23 20 19 20 22 21 21 19 21 23 27 30 33 35
14 14 15 15 16 18 19 21 24 28 22 20 17 15 19 21 22 20 16 17 18 20 25 26 27 28 17 20 19 19 20 24 21 24 24 24 26 29 26 22 21 17 19 20 18 19 20 22 24 26 30 32 35 37
16 16 17 17 18 19 20 21 22 23 25 18 18 22 25 22 14 11 20 22 24 24 24 30 22 25 19 20 21 20 21 23 27 25 22 27 30 24 22 20 18 17 17 16 21 23 23 26 27 29 31 33 36 38
16 17 17 18 19 18 18 19 15 13 14 23 24 24 20 14 18 20 23 23 23 26 25 26 25 25 21 24 23 22 23 21 28 26 26 29 29 22 16 16 15 13 15 17 19 21 23 26 28 30 33 36 36 37
15 16 17 17 18 17 18 14 11 16 18 18 15 14 14 18 19 19 20 21 24 26 23 22 22 19 20 22 23 22 23 20 29 20 25 30 24 18 14 13 14 14 15 18 20 23 25 27 30 32 34 36 36 36
15 16 17 17 16 15 13 10 8 9 12 16 20 21 22 23 25 24 26 26 26 22 19 18 20 19 19 18 19 18 21 24 21 26 30 27 21 16 13 14 14 15 17 20 24 26 28 30 32 33 35 34 34 35
18 17 17 17 16 14 10 11 12 13 15 20 22 25 27 25 25 24 24 22 21 20 17 15 18 19 19 19 19 23 22 22 29 32 31 25 19 16 14 14 14 17 21 25 28 30 31 33 33 32 32 33 34 35
17 18 17 16 15 11 11 13 15 16 17 21 22 25 25 23 21 20 20 19 17 15 16 17 19 20 20 21 21 22 24 28 27 29 26 21 17 14 15 17 19 23 27 29 30 32 33 32 32 33 32 31 31 33
16 15 15 12 11 9 11 14 16 17 17 19 21 21 18 17 18 17 17 17 16 15 16 19 20 22 23 22 23 25 27 29 27 25 22 17 17 17 18 20 24 27 30 32 32 32 31 31 32 33 33 32 32 30
17 17 12 7 8 10 13 14 16 16 18 19 19 17 17 17 16 17 17 17 15 16 19 19 22 23 20 24 26 24 28 28 25 21 20 18 19 19 22 25 29 31 31 31 31 31 31 31 32 32 34 31 30 30
18 17 11 7 9 13 15 16 16 17 19 18 18 17 17 18 18 18 17 15 16 18 18 21 19 23 25 27 27 25 24 23 22 20 20 20 21 24 28 31 31 31 31 32 32 32 32 31 31 30 29 30 32 31
19 16 10 10 13 14 16 17 17 18 18 17 16 17 18 18 16 16 15 15 16 16 17 20 24 25 26 25 25 24 24 24 25 24 23 24 27 31 30 29 30 31 32 32 32 32 32 32 30 28 28 29 33 34
17 15 11 10 12 14 16 16 16 17 18 17 15 16 17 17 17 17 17 17 18 20 22 24 25 24 24 24 24 25 25 23 27 30 31 30 27 27 28 29 30 31 32 32 32 31 31 29 26 25 26 29 33 35
15 15 14 14 13 14 14 14 15 15 14 15 14 15 17 17 18 19 19 18 21 24 28 25 26 25 22 23 23 23 24 25 28 28 30 31 28 29 29 28 29 30 31 33 34 34 32 30 26 25 27 29 30 30
16 17 16 14 13 14 15 15 14 12 13 13 13 15 17 19 19 19 19 21 24 24 24 24 24 24 24 24 22 21 23 24 25 26 26 27 30 28 29 30 32 34 35 35 35 35 32 27 26 26 27 30 29 30
16 19 18 15 13 13 13 15 14 15 16 14 13 16 18 18 18 17 22 21 22 21 20 21 20 19 20 20 21 21 22 23 27 28 28 26 26 28 29 30 31 34 36 36 33 31 29 25 25 27 29 30 30 32
19 17 17 17 15 13 12 14 14 13 13 14 15 17 17 18 17 20 23 22 21 20 21 21 20 21 20 20 22 23 25 27 28 28 24 27 30 31 31 33 34 32 31 31 32 31 27 27 27 28 30 32 33 31
19 18 17 17 17 10 11 13 15 16 17 17 17 18 19 17 20 22 23 22 22 22 21 20 19 19 22 23 25 26 28 29 32 34 32 31 34 35 35 34 35 35 33 32 32 28 26 27 28 29 32 31 31 31
16 17 17 16 14 17 14 14 12 12 13 14 15 16 15 17 22 24 19 19 18 19 21 22 24 25 26 28 32 34 36 37 38 39 38 38 40 39 38 39 38 36 31 27 28 28 27 26 29 32 30 30 29 29
14 15 14 14 12 10 13 14 13 15 15 16 15 15 17 21 22 19 16 19 19 21 23 25 27 30 33 36 36 38 39 39 38 39 41 40 37 33 33 32 32 31 31 31 29 27 26 27 30 30 30 30 29 28
12 12 11 10 12 14 14 15 16 17 17 15 14 17 20 20 21 19 18 20 23 25 26 28 30 33 35 36 37 38 39 39 39 37 36 33 30 30 31 29 28 31 31 29 29 28 28 28 29 29 29 29 30 29
13 11 12 13 15 16 16 17 17 16 15 14 17 19 19 19 19 20 22 25 27 28 31 33 33 33 32 33 33 33 34 36 39 40 38 35 34 32 32 28 29 31 31 31 30 28 26 27 27 28 28 29 30 29
13 14 15 16 18 18 18 15 17 18 18 19 19 19 20 20 21 22 24 27 29 30 29 30 31 32 33 34 34 33 31 32 33 34 34 34 34 33 31 30 31 33 33 32 31 30 27 26 26 25 27 28 29 29
13 14 17 17 18 18 18 20 20 20 20 21 21 23 23 22 21 24 25 25 25 26 29 30 30 31 33 34 35 36 35 32 34 34 33 33 33 33 33 33 31 32 32 32 30 29 28 27 25 25 26 27 29 30
16 17 19 20 21 21 21 22 22 23 22 23 23 22 22 22 25 23 24 25 25 27 28 29 31 33 33 33 32 32 33 34 34 35 35 35 35 35 34 33 32 32 31 30 28 26 26 26 25 26 26 28 29 30
19 19 20 21 22 21 21 23 23 25 23 23 23 23 23 24 23 21 20 23 24 26 28 30 32 33 31 32 33 32 33 34 34 34 34 36 35 35 34 33 32 32 31 29 27 26 26 25 25 26 26 26 27 27
Wind_Direction
211 215 219 221 224 227 231 235 241 246 252 259 266 272 276 279 276 272 271 278 266 265 265 266 272 275 277 279 286 295 299 301 308 311 319 323 327 334 335 339 341 339 338 336 339 337 336 358 347 339 334 333 338 341
213 219 220 223 226 229 232 236 241 246 251 258 264 271 275 278 276 272 268 277 279 269 271 273 278 282 282 285 287 289 298 312 311 315 317 324 324 329 330 329 340 332 330 334 335 338 337 336 329 334 335 337 338 339
222 228 225 224 228 231 234 236 241 246 251 257 262 268 274 279 279 275 271 273 276 273 275 273 275 285 293 294 295 293 296 307 310 319 320 318 315 323 321 323 324 328 323 321 325 332 330 330 332 340 340 338 338 340
236 244 233 230 230 233 236 239 243 247 252 256 261 267 272 279 283 281 274 277 279 280 273 276 284 282 289 292 296 301 306 308 312 312 309 311 312 316 317 320 321 325 327 322 317 323 329 331 337 338 334 338 340 343
246 254 254 243 240 237 238 242 246 249 252 257 261 266 271 276 281 287 287 286 286 278 279 282 284 288 292 294 296 300 301 302 304 303 304 304 310 314 316 317 316 320 315 315 317 327 327 325 331 336 337 340 342 342
286 280 274 260 253 251 249 248 249 250 252 256 260 266 271 275 278 278 272 284 289 289 284 279 292 291 294 295 296 295 297 300 303 303 304 306 311 312 312 313 323 327 326 325 322 327 328 331 334 341 339 342 343 342
299 301 292 279 272 263 256 248 246 248 251 257 260 265 270 275 276 273 276 288 290 291 286 285 285 289 291 295 297 296 300 300 301 303 302 303 307 308 309 306 319 320 324 327 330 333 331 339 337 341 343 342 341 341
291 296 301 292 284 278 271 261 249 247 250 255 260 265 271 276 278 275 288 293 293 290 287 282 284 289 297 290 290 297 296 298 300 301 305 304 308 306 307 313 317 321 327 332 335 337 338 341 343 342 342 341 339 338
286 292 296 295 294 289 282 271 259 248 248 250 257 265 271 271 269 274 285 290 293 287 281 281 279 285 295 295 299 302 301 297 304 298 300 306 302 303 311 313 317 321 324 330 339 342 342 341 340 340 340 339 337 337
294 291 295 298 295 294 294 281 267 254 246 243 256 263 266 269 278 280 283 281 281 281 282 278 284 284 292 293 295 300 302 298 299 302 311 303 301 305 315 317 320 321 327 335 330 330 335 334 337 337 337 337 336 336
298 297 301 298 298 298 302 298 276 253 241 247 253 262 275 270 273 277 273 272 275 280 282 281 274 279 290 288 291 297 297 300 298 303 305 308 308 309 312 319 328 333 332 335 338 339 337 336 335 335 335 335 336 336
294 297 302 305 304 302 303 305 277 261 256 253 257 272 273 274 278 272 269 274 274 277 282 282 286 286 291 296 291 294 291 295 297 312 309 307 313 321 320 321 327 332 335 337 338 335 335 335 335 334 334 334 335 336
298 295 297 299 309 303 312 328 301 275 268 274 268 265 268 273 271 268 265 270 273 283 283 286 287 294 298 296 296 296 294 294 307 303 304 311 321 322 322 324 327 333 336 335 333 333 332 332 332 332 332 333 334 336
287 289 293 295 297 296 303 301 308 298 280 269 266 261 263 270 272 274 277 277 286 286 283 286 291 294 298 294 297 293 299 302 298 299 304 316 318 320 323 327 328 329 331 329 329 329 329 329 329 331 332 333 334 335
291 289 288 293 295 294 284 292 294 299 284 270 272 268 271 276 281 283 285 285 289 291 286 289 294 298 297 295 297 297 297 296 300 305 315 320 323 327 328 326 324 324 325 326 327 327 327 328 329 330 333 335 335 335
300 301 291 298 304 305 296 293 290 292 287 278 274 273 278 280 284 285 288 289 293 293 301 299 295 293 292 295 293 292 295 297 305 312 317 322 323 326 325 324 324 324 324 324 325 326 327 328 328 330 332 333 335 336
298 292 291 294 303 301 303 299 284 287 280 278 276 281 282 285 286 288 291 293 299 292 291 299 293 293 303 296 294 298 298 305 311 315 320 323 320 323 323 323 323 324 324 325 326 326 326 328 329 329 329 335 337 337
290 288 279 263 281 294 293 288 293 286 279 280 274 277 283 287 287 289 294 297 294 293 293 293 301 293 293 295 297 302 308 314 316 316 317 321 322 322 322 321 323 324 325 325 325 326 326 327 328 329 331 334 336 337
288 283 265 257 273 280 289 288 287 282 285 283 285 283 285 288 296 302 303 305 307 307 303 300 295 295 296 301 304 309 312 314 314 314 317 319 319 320 322 324 325 325 326 327 328 327 327 327 326 327 330 333 333 335
278 274 251 258 275 276 279 288 290 287 284 288 290 285 289 290 294 300 298 302 302 304 300 297 297 303 306 310 312 313 315 319 316 314 314 318 323 325 325 327 327 329 329 331 331 331 330 330 331 331 332 334 334 335
263 260 251 255 272 281 283 287 291 294 291 292 290 292 294 298 296 296 298 304 300 299 296 302 304 308 316 316 319 319 318 320 316 316 317 318 324 325 326 328 330 331 331 330 329 328 328 326 327 330 332 334 335 336
255 237 243 256 274 281 284 283 287 296 298 301 295 299 299 295 299 303 309 303 302 303 307 310 311 313 313 313 320 322 322 322 322 322 322 323 321 324 325 328 328 326 327 327 327 326 326 326 326 328 330 332 335 337
242 237 244 256 271 277 281 277 285 291 291 293 301 298 301 305 313 319 307 314 315 320 320 320 324 324 321 326 327 327 328 328 324 323 323 324 324 325 325 325 327 325 325 326 329 329 328 329 328 328 329 331 333 334
229 235 244 248 265 272 279 283 286 293 300 297 299 300 307 310 320 313 310 316 321 326 325 324 327 323 326 327 326 327 330 330 327 327 327 324 321 321 324 324 325 325 327 328 329 329 329 326 327 328 328 328 329 332
228 238 250 258 256 279 287 287 287 291 292 296 301 304 310 319 313 314 316 322 328 331 336 337 334 332 328 326 326 327 331 330 326 323 323 321 318 317 317 320 321 321 322 323 325 327 329 327 327 327 326 328 330 332
242 254 257 264 268 267 283 292 297 301 310 311 313 321 324 320 313 312 326 334 338 339 337 334 330 328 326 326 323 322 322 324 322 320 320 321 319 317 315 315 316 317 320 320 322 323 326 327 326 324 327 329 331 333
259 267 272 269 281 292 294 297 302 306 306 309 314 316 319 316 316 326 340 338 334 333 333 331 328 323 320 319 320 321 321 322 322 320 320 320 321 320 317 318 318 320 319 318 319 321 324 324 322 323 326 328 330 334
280 284 277 292 295 296 302 302 303 306 311 321 322 316 317 318 321 331 333 331 330 330 329 327 326 324 323 323 322 322 323 326 327 328 330 333 339 342 339 338 333 324 320 320 320 322 324 323 321 322 325 327 329 336
284 290 292 292 298 302 307 310 312 318 328 326 322 321 321 326 329 328 327 327 327 326 325 324 326 330 330 331 332 333 335 335 330 329 331 333 336 339 344 346 339 327 321 320 321 324 326 324 324 325 327 329 331 336
299 311 308 304 303 308 316 324 323 323 323 323 324 325 324 326 329 330 328 327 326 328 330 331 331 330 330 331 332 334 342 342 342 339 336 335 335 337 340 339 336 326 322 320 320 321 324 326 327 329 330 332 334 335
328 325 317 319 318 321 320 320 321 322 322 321 322 318 318 322 325 331 331 333 334 334 332 331 331 333 332 332 332 331 331 337 337 337 336 335 335 335 335 334 332 328 324 321 321 322 323 324 327 329 332 334 335 336
323 319 318 315 316 322 323 321 320 319 320 318 318 321 322 322 320 328 334 334 334 334 335 335 333 332 333 333 334 335 334 333 333 333 333 332 331 330 329 328 328 327 325 325 324 324 324 325 326 328 330 333 335 337
321 321 321 320 320 321 324 322 320 320 321 321 322 323 323 322 322 331 338 341 339 338 337 336 336 336 336 336 335 336 335 334 333 333 332 330 329 327 327 326 324 323 322 321 321 322 323 325 327 330 333 335 338 340